| time (UTC) | temp C | wind direction | speed KPH | gust KPH | rain 1hr cm | rain 24hr cm | rain mn cm | humidity % | barometer mb |
| 20260906193516 | 32 | 0.0 | 0.0 | 0.00 | 0.00 | 0.00 | 28 | 1021.1 | |
| 20260906192557 | 32 | 0.0 | 1.6 | 0.00 | 0.00 | 0.00 | 27 | 1020.9 | |
| 20260906191517 | 32 | 305 | 0.0 | 4.8 | 0.00 | 0.00 | 0.00 | 27 | 1020.8 |
| 20260906190517 | 32 | 252 | 0.0 | 1.6 | 0.00 | 0.00 | 0.00 | 28 | 1020.8 |
| 20260906185517 | 32 | 0.0 | 0.0 | 0.00 | 0.00 | 0.00 | 28 | 1020.7 | |
| 20260906184516 | 33 | 0.0 | 0.0 | 0.00 | 0.00 | 0.00 | 26 | 1020.8 | |
| 20260906183517 | 34 | 0.0 | 0.0 | 0.00 | 0.00 | 0.00 | 24 | 1020.8 | |
| 20260906182517 | 35 | 0.0 | 0.0 | 0.00 | 0.00 | 0.00 | 22 | 1020.8 | |
| 20260906181517 | 35 | 252 | 0.0 | 4.8 | 0.00 | 0.00 | 0.00 | 21 | 1020.9 |
| 20260906180516 | 36 | 224 | 1.6 | 9.7 | 0.00 | 0.00 | 0.00 | 21 | 1021.1 |
| 20260906175617 | 36 | 179 | 1.6 | 8.0 | 0.00 | 0.00 | 0.00 | 21 | 1021.0 |
| 20260906174517 | 36 | 265 | 3.2 | 6.4 | 0.00 | 0.00 | 0.00 | 21 | 1021.0 |
| 20260906173517 | 36 | 280 | 3.2 | 8.0 | 0.00 | 0.00 | 0.00 | 21 | 1021.1 |
| 20260906172517 | 36 | 221 | 3.2 | 9.7 | 0.00 | 0.00 | 0.00 | 21 | 1021.1 |
| 20260906171517 | 36 | 270 | 6.4 | 12.9 | 0.00 | 0.00 | 0.00 | 21 | 1021.2 |
| 20260906170517 | 36 | 266 | 4.8 | 9.7 | 0.00 | 0.00 | 0.00 | 21 | 1021.2 |
| 20260906165517 | 36 | 270 | 8.0 | 16.1 | 0.00 | 0.00 | 0.00 | 21 | 1021.1 |
| 20260906164517 | 36 | 263 | 4.8 | 17.7 | 0.00 | 0.00 | 0.00 | 21 | 1021.2 |
| 20260906163517 | 36 | 282 | 4.8 | 17.7 | 0.00 | 0.00 | 0.00 | 21 | 1021.1 |
| 20260906162517 | 36 | 284 | 6.4 | 16.1 | 0.00 | 0.00 | 0.00 | 20 | 1021.1 |
| 20260906161557 | 36 | 285 | 6.4 | 11.3 | 0.00 | 0.00 | 0.00 | 21 | 1021.1 |
| 20260906160557 | 36 | 266 | 9.7 | 19.3 | 0.00 | 0.00 | 0.00 | 20 | 1021.1 |
| 20260906155517 | 37 | 264 | 6.4 | 16.1 | 0.00 | 0.00 | 0.00 | 20 | 1021.3 |
| 20260906154517 | 37 | 266 | 6.4 | 16.1 | 0.00 | 0.00 | 0.00 | 20 | 1021.3 |
| 20260906153517 | 37 | 245 | 4.8 | 12.9 | 0.00 | 0.00 | 0.00 | 20 | 1021.4 |
| 20260906152517 | 36 | 258 | 4.8 | 16.1 | 0.00 | 0.00 | 0.00 | 20 | 1021.3 |
| 20260906151517 | 36 | 267 | 8.0 | 19.3 | 0.00 | 0.00 | 0.00 | 20 | 1021.4 |
| 20260906150515 | 37 | 276 | 6.4 | 14.5 | 0.00 | 0.00 | 0.00 | 20 | 1021.5 |
| 20260906145517 | 36 | 122 | 6.4 | 17.7 | 0.00 | 0.00 | 0.00 | 21 | 1021.5 |
| 20260906144517 | 36 | 241 | 6.4 | 16.1 | 0.00 | 0.00 | 0.00 | 21 | 1021.7 |
| 20260906143517 | 36 | 252 | 6.4 | 14.5 | 0.00 | 0.00 | 0.00 | 21 | 1021.9 |
| 20260906142517 | 36 | 256 | 4.8 | 12.9 | 0.00 | 0.00 | 0.00 | 21 | 1021.9 |
| 20260906141517 | 36 | 235 | 8.0 | 17.7 | 0.00 | 0.00 | 0.00 | 21 | 1022.0 |
| 20260906140517 | 36 | 236 | 4.8 | 14.5 | 0.00 | 0.00 | 0.00 | 20 | 1022.1 |
| 20260906135517 | 36 | 252 | 6.4 | 16.1 | 0.00 | 0.00 | 0.00 | 20 | 1022.3 |
| 20260906134557 | 36 | 244 | 6.4 | 16.1 | 0.00 | 0.00 | 0.00 | 20 | 1022.4 |
| 20260906133517 | 35 | 254 | 4.8 | 12.9 | 0.00 | 0.00 | 0.00 | 21 | 1022.3 |
| 20260906132517 | 35 | 268 | 6.4 | 12.9 | 0.00 | 0.00 | 0.00 | 22 | 1022.4 |
| 20260906131517 | 35 | 265 | 6.4 | 14.5 | 0.00 | 0.00 | 0.00 | 22 | 1022.5 |
| 20260906130517 | 35 | 165 | 4.8 | 17.7 | 0.00 | 0.00 | 0.00 | 22 | 1022.5 |
| 20260906125517 | 35 | 241 | 4.8 | 14.5 | 0.00 | 0.00 | 0.00 | 23 | 1022.6 |
| 20260906124555 | 35 | 159 | 3.2 | 12.9 | 0.00 | 0.00 | 0.00 | 24 | 1022.7 |
| 20260906123517 | 35 | 261 | 1.6 | 11.3 | 0.00 | 0.00 | 0.00 | 24 | 1022.7 |
| 20260906122515 | 35 | 232 | 3.2 | 9.7 | 0.00 | 0.00 | 0.00 | 24 | 1022.8 |
| 20260906121517 | 33 | 238 | 3.2 | 17.7 | 0.00 | 0.00 | 0.00 | 25 | 1022.8 |
| 20260906120517 | 33 | 151 | 6.4 | 12.9 | 0.00 | 0.00 | 0.00 | 25 | 1022.8 |
| 20260906115517 | 33 | 242 | 6.4 | 16.1 | 0.00 | 0.00 | 0.00 | 25 | 1022.9 |
| 20260906114517 | 33 | 225 | 3.2 | 11.3 | 0.00 | 0.00 | 0.00 | 26 | 1023.1 |
| 20260906113517 | 32 | 246 | 3.2 | 11.3 | 0.00 | 0.00 | 0.00 | 26 | 1023.2 |
| 20260906112517 | 32 | 248 | 3.2 | 9.7 | 0.00 | 0.00 | 0.00 | 27 | 1023.1 |
| 20260906111517 | 32 | 285 | 3.2 | 8.0 | 0.00 | 0.00 | 0.00 | 27 | 1023.3 |
| 20260906110517 | 32 | 246 | 4.8 | 11.3 | 0.00 | 0.00 | 0.00 | 28 | 1023.3 |
| 20260906105517 | 32 | 272 | 3.2 | 9.7 | 0.00 | 0.00 | 0.00 | 29 | 1023.4 |
| 20260906103515 | 31 | 140 | 3.2 | 8.0 | 0.00 | 0.00 | 0.00 | 29 | 1023.4 |
| 20260906102517 | 31 | 265 | 3.2 | 9.7 | 0.00 | 0.00 | 0.00 | 29 | 1023.4 |
| 20260906101515 | 30 | 268 | 3.2 | 8.0 | 0.00 | 0.00 | 0.00 | 30 | 1023.4 |
| 20260906100555 | 30 | 37 | 3.2 | 8.0 | 0.00 | 0.00 | 0.00 | 31 | 1023.5 |
| 20260906095555 | 30 | 112 | 4.8 | 9.7 | 0.00 | 0.00 | 0.00 | 31 | 1023.6 |
| 20260906094515 | 29 | 108 | 3.2 | 8.0 | 0.00 | 0.00 | 0.00 | 32 | 1023.5 |
| 20260906093515 | 28 | 51 | 3.2 | 9.7 | 0.00 | 0.00 | 0.00 | 32 | 1023.4 |
| 20260906092515 | 28 | 232 | 3.2 | 8.0 | 0.00 | 0.00 | 0.00 | 32 | 1023.5 |
| 20260906091515 | 28 | 85 | 1.6 | 6.4 | 0.00 | 0.00 | 0.00 | 33 | 1023.5 |
| 20260906090515 | 27 | 103 | 3.2 | 6.4 | 0.00 | 0.00 | 0.00 | 35 | 1023.5 |
| 20260906085555 | 26 | 73 | 3.2 | 8.0 | 0.00 | 0.00 | 0.00 | 38 | 1023.4 |
| 20260906084515 | 26 | 52 | 4.8 | 11.3 | 0.00 | 0.00 | 0.00 | 38 | 1023.3 |
| 20260906083515 | 26 | 60 | 4.8 | 8.0 | 0.00 | 0.00 | 0.00 | 39 | 1023.2 |
| 20260906082515 | 25 | 45 | 4.8 | 9.7 | 0.00 | 0.00 | 0.00 | 40 | 1023.1 |
| 20260906081515 | 25 | 46 | 3.2 | 6.4 | 0.00 | 0.00 | 0.00 | 41 | 1023.1 |
| 20260906080515 | 25 | 65 | 3.2 | 6.4 | 0.00 | 0.00 | 0.00 | 40 | 1023.1 |
| 20260906075515 | 25 | 86 | 0.0 | 3.2 | 0.00 | 0.00 | 0.00 | 41 | 1023.0 |
| 20260906074555 | 25 | 86 | 0.0 | 3.2 | 0.00 | 0.00 | 0.00 | 41 | 1023.0 |
| 20260906073555 | 25 | 86 | 1.6 | 8.0 | 0.00 | 0.00 | 0.00 | 41 | 1023.0 |
| 20260906072515 | 25 | 64 | 1.6 | 4.8 | 0.00 | 0.00 | 0.00 | 41 | 1022.9 |
| 20260906071515 | 24 | 43 | 1.6 | 3.2 | 0.00 | 0.00 | 0.00 | 42 | 1022.8 |
| 20260906070515 | 24 | 54 | 3.2 | 6.4 | 0.00 | 0.00 | 0.00 | 41 | 1022.8 |
| 20260906065515 | 24 | 72 | 3.2 | 8.0 | 0.00 | 0.00 | 0.00 | 41 | 1022.7 |
| 20260906064555 | 24 | 72 | 4.8 | 8.0 | 0.00 | 0.00 | 0.00 | 41 | 1022.7 |
| 20260906063515 | 24 | 46 | 3.2 | 6.4 | 0.00 | 0.00 | 0.00 | 41 | 1022.8 |
| 20260906062515 | 24 | 59 | 3.2 | 4.8 | 0.00 | 0.00 | 0.00 | 41 | 1022.6 |
| 20260906061516 | 24 | 61 | 0.0 | 4.8 | 0.00 | 0.00 | 0.00 | 41 | 1022.7 |
| 20260906060515 | 24 | 0.0 | 0.0 | 0.00 | 0.00 | 0.00 | 41 | 1022.7 | |
| 20260906055515 | 24 | 0.0 | 0.0 | 0.00 | 0.00 | 0.00 | 40 | 1022.5 | |
| 20260906054515 | 25 | 60 | 0.0 | 6.4 | 0.00 | 0.00 | 0.00 | 40 | 1022.6 |
| 20260906053515 | 25 | 49 | 0.0 | 3.2 | 0.00 | 0.00 | 0.00 | 39 | 1022.3 |
| 20260906052515 | 25 | 42 | 3.2 | 8.0 | 0.00 | 0.00 | 0.00 | 38 | 1022.2 |
| 20260906051515 | 25 | 278 | 1.6 | 3.2 | 0.00 | 0.00 | 0.00 | 38 | 1022.2 |
| 20260906050515 | 25 | 0.0 | 0.0 | 0.00 | 0.00 | 0.00 | 37 | 1022.3 | |
| 20260906045515 | 25 | 278 | 0.0 | 3.2 | 0.00 | 0.00 | 0.00 | 37 | 1022.4 |
| 20260906044555 | 26 | 277 | 1.6 | 3.2 | 0.00 | 0.00 | 0.00 | 36 | 1022.5 |
| 20260906043516 | 26 | 277 | 0.0 | 6.4 | 0.00 | 0.00 | 0.00 | 35 | 1022.7 |
| 20260906042515 | 26 | 244 | 3.2 | 12.9 | 0.00 | 0.00 | 0.00 | 35 | 1022.6 |
| 20260906041516 | 26 | 311 | 6.4 | 16.1 | 0.00 | 0.00 | 0.00 | 35 | 1022.9 |
| 20260906040515 | 26 | 89 | 4.8 | 11.3 | 0.00 | 0.00 | 0.00 | 34 | 1021.9 |
| 20260906035515 | 26 | 115 | 1.6 | 8.0 | 0.00 | 0.00 | 0.00 | 35 | 1022.6 |
| 20260906034515 | 26 | 0.0 | 0.0 | 0.00 | 0.00 | 0.00 | 36 | 1022.8 | |
| 20260906033515 | 26 | 0.0 | 0.0 | 0.00 | 0.00 | 0.00 | 36 | 1022.8 | |
| 20260906032515 | 26 | 257 | 0.0 | 3.2 | 0.00 | 0.00 | 0.00 | 35 | 1022.8 |
| 20260906031515 | 26 | 103 | 1.6 | 1.6 | 0.00 | 0.00 | 0.00 | 34 | 1022.9 |
| 20260906030515 | 27 | 103 | 1.6 | 3.2 | 0.00 | 0.00 | 0.00 | 33 | 1023.0 |
| 20260906025515 | 27 | 105 | 1.6 | 4.8 | 0.00 | 0.00 | 0.00 | 32 | 1022.7 |
| 20260906024515 | 27 | 80 | 1.6 | 4.8 | 0.00 | 0.00 | 0.00 | 32 | 1022.6 |
| 20260906023515 | 27 | 142 | 3.2 | 9.7 | 0.00 | 0.00 | 0.00 | 32 | 1022.8 |
| 20260906022515 | 27 | 110 | 0.0 | 8.0 | 0.00 | 0.00 | 0.00 | 32 | 1022.8 |
| 20260906021515 | 27 | 116 | 3.2 | 9.7 | 0.00 | 0.00 | 0.00 | 32 | 1022.8 |
| 20260906020516 | 27 | 120 | 3.2 | 9.7 | 0.00 | 0.00 | 0.00 | 33 | 1022.9 |
| 20260906015555 | 27 | 131 | 4.8 | 11.3 | 0.00 | 0.00 | 0.00 | 34 | 1022.7 |
| 20260906014515 | 27 | 116 | 6.4 | 14.5 | 0.00 | 0.00 | 0.00 | 35 | 1022.7 |
| 20260906013515 | 27 | 127 | 1.6 | 8.0 | 0.00 | 0.00 | 0.00 | 36 | 1022.8 |
| 20260906012515 | 27 | 76 | 1.6 | 8.0 | 0.00 | 0.00 | 0.00 | 36 | 1022.9 |
| 20260906011515 | 27 | 129 | 1.6 | 8.0 | 0.00 | 0.00 | 0.00 | 36 | 1022.9 |
| 20260906010515 | 27 | 111 | 3.2 | 8.0 | 0.00 | 0.00 | 0.00 | 36 | 1023.1 |
| 20260906005515 | 26 | 77 | 4.8 | 12.9 | 0.00 | 0.00 | 0.00 | 37 | 1023.0 |
| 20260906004555 | 26 | 319 | 1.6 | 3.2 | 0.00 | 0.00 | 0.00 | 37 | 1023.2 |
| 20260906003515 | 26 | 49 | 1.6 | 6.4 | 0.00 | 0.00 | 0.00 | 38 | 1023.0 |
| 20260906002516 | 26 | 51 | 4.8 | 8.0 | 0.00 | 0.00 | 0.00 | 37 | 1022.8 |
| 20260906001516 | 26 | 91 | 6.4 | 14.5 | 0.00 | 0.00 | 0.00 | 37 | 1022.7 |
| 20260906000515 | 26 | 65 | 4.8 | 11.3 | 0.00 | 0.00 | 0.00 | 38 | 1022.7 |
| 20260905235517 | 26 | 61 | 6.4 | 14.5 | 0.00 | 0.00 | 0.00 | 37 | 1022.8 |
| 20260905234517 | 26 | 58 | 6.4 | 11.3 | 0.00 | 0.00 | 0.00 | 37 | 1022.7 |
| 20260905233517 | 26 | 61 | 4.8 | 9.7 | 0.00 | 0.00 | 0.00 | 37 | 1022.9 |
| 20260905232517 | 26 | 51 | 4.8 | 9.7 | 0.00 | 0.00 | 0.00 | 37 | 1022.9 |
| 20260905231515 | 27 | 84 | 3.2 | 6.4 | 0.00 | 0.00 | 0.00 | 36 | 1023.0 |
| 20260905230517 | 27 | 114 | 1.6 | 9.7 | 0.00 | 0.00 | 0.00 | 36 | 1023.0 |
| 20260905225517 | 27 | 76 | 3.2 | 8.0 | 0.00 | 0.00 | 0.00 | 37 | 1022.8 |
| 20260905224517 | 27 | 0.0 | 0.0 | 0.00 | 0.00 | 0.00 | 39 | 1022.6 | |
| 20260905223517 | 27 | 0.0 | 0.0 | 0.00 | 0.00 | 0.00 | 40 | 1022.7 | |
| 20260905222517 | 27 | 0.0 | 0.0 | 0.00 | 0.00 | 0.00 | 39 | 1022.7 | |
| 20260905221517 | 27 | 0.0 | 0.0 | 0.00 | 0.00 | 0.00 | 39 | 1022.7 | |
| 20260905220617 | 27 | 0.0 | 0.0 | 0.00 | 0.00 | 0.00 | 38 | 1022.7 | |
| 20260905215517 | 27 | 0.0 | 1.6 | 0.00 | 0.00 | 0.00 | 38 | 1022.8 | |
| 20260905214517 | 27 | 0.0 | 0.0 | 0.00 | 0.00 | 0.00 | 38 | 1022.5 | |
| 20260905213517 | 27 | 0.0 | 1.6 | 0.00 | 0.00 | 0.00 | 38 | 1022.4 | |
| 20260905212517 | 27 | 271 | 0.0 | 1.6 | 0.00 | 0.00 | 0.00 | 38 | 1022.5 |
| 20260905211517 | 27 | 0.0 | 0.0 | 0.00 | 0.00 | 0.00 | 37 | 1022.3 | |
| 20260905210515 | 28 | 0.0 | 0.0 | 0.00 | 0.00 | 0.00 | 37 | 1022.4 | |
| 20260905205517 | 28 | 262 | 0.0 | 1.6 | 0.00 | 0.00 | 0.00 | 35 | 1022.3 |
| 20260905204515 | 28 | 0.0 | 3.2 | 0.00 | 0.00 | 0.00 | 35 | 1022.2 | |
| 20260905203515 | 28 | 262 | 1.6 | 3.2 | 0.00 | 0.00 | 0.00 | 35 | 1022.2 |
| 20260905202515 | 28 | 262 | 1.6 | 3.2 | 0.00 | 0.00 | 0.00 | 35 | 1022.2 |
| 20260905201515 | 28 | 262 | 1.6 | 4.8 | 0.00 | 0.00 | 0.00 | 34 | 1022.2 |
| 20260905200515 | 28 | 270 | 1.6 | 4.8 | 0.00 | 0.00 | 0.00 | 34 | 1022.1 |
| 20260905195515 | 28 | 264 | 1.6 | 4.8 | 0.00 | 0.00 | 0.00 | 34 | 1021.9 |
| 20260905194615 | 29 | 245 | 3.2 | 6.4 | 0.00 | 0.00 | 0.00 | 33 | 1021.7 |